Key West, FL

8:25 AM EST on January 16, 2017 (GMT -0500)
Key West Naval Air Station

Weather History for KNQX - March, 2013

Change the Weather History Date:

Tuesday, March 12, 2013

  Actual Average Record
Temperature  
Mean Temperature 74 °F -  
Max Temperature 80 °F 78 °F 84 °F (1952)
Min Temperature 69 °F 69 °F 55 °F (1998)
Cooling Degree Days 9    
Growing Degree Days 24 (Base 50)    
Moisture  
Dew Point 66 °F    
Average Humidity 76    
Maximum Humidity 93    
Minimum Humidity 61    
Precipitation  
Precipitation 0.00 in - - ()
Sea Level Pressure  
Sea Level Pressure 29.97 in    
Wind  
Wind Speed 12 mph (South)    
Max Wind Speed 15 mph    
Max Gust Speed 21 mph    
Visibility 10 miles    
Events      
Averages and records for this station are not official NWS values.
T = Trace of Precipitation, MM = Missing Value Source: NWS Daily Summary

Daily Weather History Graph

Daily Weather History Graph

Search for Another Location

Airport or City:

Trip Planner

Search our weather history database for the weather conditions in past years. The results will help you decide how hot, cold, wet, or windy it might be!

Date:

Astronomy

Mar. 12, 2013 Rise Set
Actual Time 7:38 AM EDT 7:34 PM EDT
Civil Twilight 7:15 AM EDT 7:57 PM EDT
Nautical Twilight 6:49 AM EDT 8:23 PM EDT
Astronomical Twilight 6:23 AM EDT 8:50 PM EDT
Moon 7:54 AM EDT (3/12) 8:34 PM EDT (3/12)
Length of Visible Light 12h 41m
Length of Day
11h 56m
New Moon, 1% of the Moon is Illuminated
Mar 12
New Moon
Mar 19
First Quarter
Mar 27
Full
Apr 3
Last Quarter
Apr 10
New

Hourly Weather History & Observations

Time (EDT) Temp. Dew Point Humidity Pressure Visibility Wind Dir Wind Speed Gust Speed Precip Events Conditions
12:53 AM 73.0 °F 59.0 °F 61% 29.98 in 10.0 mi SE 12.7 mph - N/A   Clear
1:53 AM 73.0 °F 61.0 °F 66% 29.97 in 10.0 mi SE 11.5 mph - N/A   Scattered Clouds
2:53 AM 73.0 °F 64.9 °F 76% 29.94 in 10.0 mi SSE 10.4 mph - N/A   Partly Cloudy
3:43 AM 73.4 °F 66.2 °F 78% 29.95 in 10.0 mi SSE 12.7 mph - N/A   Mostly Cloudy
3:50 AM 73.4 °F 66.2 °F 78% 29.94 in 10.0 mi SSE 13.8 mph - N/A   Scattered Clouds
3:53 AM 73.0 °F 66.0 °F 79% 29.94 in 10.0 mi SSE 12.7 mph - N/A   Scattered Clouds
4:53 AM 73.0 °F 66.0 °F 79% 29.91 in 10.0 mi SSE 15.0 mph - N/A   Scattered Clouds
5:53 AM 73.0 °F 66.9 °F 81% 29.92 in 10.0 mi South 12.7 mph - N/A   Partly Cloudy
6:53 AM 73.0 °F 66.0 °F 79% 29.94 in 10.0 mi South 8.1 mph - N/A   Partly Cloudy
7:53 AM 73.0 °F 66.9 °F 81% 29.95 in 10.0 mi South 9.2 mph - N/A   Mostly Cloudy
8:53 AM 75.0 °F 68.0 °F 79% 29.97 in 10.0 mi South 10.4 mph - N/A   Mostly Cloudy
9:53 AM 75.9 °F 68.0 °F 76% 30.00 in 10.0 mi South 10.4 mph - N/A   Mostly Cloudy
10:53 AM 78.1 °F 68.0 °F 71% 30.01 in 10.0 mi South 15.0 mph 20.7 mph N/A   Mostly Cloudy
11:53 AM 78.1 °F 68.0 °F 71% 30.01 in 10.0 mi South 15.0 mph - N/A   Mostly Cloudy
12:53 PM 79.0 °F 66.0 °F 64% 30.00 in 10.0 mi South 12.7 mph - N/A   Mostly Cloudy
1:53 PM 79.0 °F 66.0 °F 64% 30.00 in 10.0 mi South 11.5 mph - N/A   Scattered Clouds
2:53 PM 78.1 °F 64.9 °F 64% 29.97 in 10.0 mi SSW 13.8 mph - N/A   Scattered Clouds
3:53 PM 78.1 °F 66.0 °F 66% 29.96 in 10.0 mi SSW 8.1 mph - N/A   Mostly Cloudy
4:53 PM 77.0 °F 66.9 °F 71% 29.96 in 10.0 mi SSW 10.4 mph - N/A   Overcast
5:53 PM 75.9 °F 66.9 °F 74% 29.96 in 10.0 mi SW 8.1 mph - N/A   Overcast
6:53 PM 75.0 °F 68.0 °F 79% 29.96 in 10.0 mi SSW 5.8 mph - N/A   Overcast
7:53 PM 75.0 °F 66.9 °F 76% 29.97 in 10.0 mi WSW 6.9 mph - N/A   Overcast
8:53 PM 72.0 °F 68.0 °F 87% 30.00 in 10.0 mi NNW 12.7 mph - 0.00 in   Overcast
9:53 PM 70.0 °F 66.9 °F 90% 30.01 in 10.0 mi North 9.2 mph - N/A   Mostly Cloudy
10:00 PM 69.8 °F 66.2 °F 88% 30.02 in 10.0 mi North 11.5 mph - N/A   Overcast
10:53 PM 69.1 °F 66.9 °F 93% 30.03 in 10.0 mi North 13.8 mph - N/A   Overcast
11:53 PM 69.1 °F 64.0 °F 84% 30.04 in 10.0 mi North 10.4 mph - N/A   Overcast